Weather History for Lancaster, CA

Change the Weather History Date:

Monday, April 8, 2013

  Actual Average Record
Temperature  
Mean Temperature 53 °F 57 °F  
Max Temperature 59 °F 71 °F 95 °F (1989)
Min Temperature 46 °F 43 °F 28 °F (2012)
Degree Days  
Heating Degree Days 12    
Month to date heating degree days 30  
Since 1 July heating degree days 2608  
Cooling Degree Days 0    
Month to date cooling degree days 2  
Year to date cooling degree days 14  
Growing Degree Days 2 (Base 50)    
Moisture  
Dew Point 32 °F    
Average Humidity 50    
Maximum Humidity 64    
Minimum Humidity 35    
Precipitation  
Precipitation 0.00 in 0.01 in 0.66 in (1952)
Month to date precipitation 0.00 0.14  
Year to date precipitation 0.95 4.56  
Since 1 July precipitation 1.11 7.03  
Snow  
Snow 0.00 in - 0.00 in ()
Month to date snowfall 0.0  
Since 1 July snowfall 0.0  
Snow Depth 0.00 in    
Sea Level Pressure  
Sea Level Pressure 29.73 in    
Wind  
Wind Speed 24 mph (West)    
Max Wind Speed 52 mph    
Max Gust Speed 62 mph    
Visibility 3 miles    
Events      
T = Trace of Precipitation, MM = Missing Value Source: NWS Daily Summary

Daily Weather History Graph

Daily Weather History Graph

Search for Another Location

Airport:

Trip Planner

Search our weather history database for the weather conditions in past years. The results will help you decide how hot, cold, wet, or windy it might be!

Date:

Astronomy

Apr. 08, 2013 Rise Set
Actual Time 6:29 AM PDT 7:19 PM PDT
Civil Twilight 6:04 AM PDT 7:45 PM PDT
Nautical Twilight 5:33 AM PDT 8:15 PM PDT
Astronomical Twilight 5:02 AM PDT 8:47 PM PDT
Moon 5:19 AM PDT (4/8) 6:01 PM PDT (4/8)
Length of Visible Light 13h 41m
Length of Day
12h 49m
Waning Crescent, 3% of the Moon is Illuminated
Apr 8
Waning Crescent
Apr 10
New
Apr 18
First Quarter
Apr 25
Full
May 2
Last Quarter

Hourly Weather History & Observations

Time (PDT) Temp. Windchill Dew Point Humidity Pressure Visibility Wind Dir Wind Speed Gust Speed Precip Events Conditions
12:00 AM 57.2 °F - 39.2 °F 51% 29.80 in 0.8 mi WSW 19.6 mph 24.2 mph N/A   Haze
12:13 AM 57.2 °F - 39.2 °F 51% 29.80 in 2.5 mi West 19.6 mph - N/A   Haze
12:20 AM 57.2 °F - 39.2 °F 51% 29.80 in 5.0 mi WSW 18.4 mph - N/A   Haze
12:30 AM 57.2 °F - 39.2 °F 51% 29.80 in 1.0 mi West 15.0 mph - N/A   Haze
12:37 AM 57.2 °F - 39.2 °F 51% 29.80 in 0.8 mi West 15.0 mph - N/A   Haze
12:41 AM 57.2 °F - 39.2 °F 51% 29.79 in 2.0 mi West 16.1 mph - N/A   Haze
12:48 AM 57.2 °F - 39.2 °F 51% 29.78 in 10.0 mi West 23.0 mph 28.8 mph N/A   Clear
12:56 AM 57.9 °F - 39.9 °F 51% 29.75 in 1.8 mi West 25.3 mph 31.1 mph N/A   Haze
1:09 AM 57.2 °F - 39.2 °F 51% 29.78 in 0.2 mi West 21.9 mph - N/A   Haze
1:23 AM 57.2 °F - 39.2 °F 51% 29.76 in 1.0 mi West 23.0 mph 27.6 mph N/A   Haze
1:25 AM 57.2 °F - 39.2 °F 51% 29.76 in 4.0 mi West 24.2 mph 27.6 mph N/A   Haze
1:56 AM 59.0 °F - 39.9 °F 49% 29.70 in 10.0 mi West 29.9 mph 36.8 mph N/A   Clear
2:56 AM 53.1 °F - 41.0 °F 64% 29.70 in 10.0 mi WNW 27.6 mph 39.1 mph N/A   Clear
3:56 AM 51.1 °F - 37.9 °F 61% 29.68 in 10.0 mi WNW 25.3 mph 35.7 mph N/A   Clear
4:56 AM 50.0 °F - 36.0 °F 59% 29.67 in 10.0 mi WNW 23.0 mph 32.2 mph N/A   Clear
5:56 AM 50.0 °F - 35.1 °F 57% 29.68 in 10.0 mi West 21.9 mph 35.7 mph N/A   Clear
6:56 AM 48.9 °F - 30.9 °F 50% 29.68 in 10.0 mi West 25.3 mph 32.2 mph N/A   Clear
7:56 AM 50.0 °F - 25.0 °F 38% 29.68 in 8.0 mi West 33.4 mph 40.3 mph N/A   Clear
8:56 AM 46.0 °F 38.3 °F 26.1 °F 46% 29.74 in 5.0 mi West 20.7 mph 36.8 mph N/A   Haze
9:56 AM 46.9 °F - 27.0 °F 46% 29.72 in 10.0 mi West 18.4 mph 28.8 mph N/A   Mostly Cloudy
10:07 AM 48.2 °F - 26.6 °F 43% 29.72 in 1.8 mi WNW 25.3 mph 40.3 mph N/A   Haze
10:11 AM 48.2 °F - 26.6 °F 43% 29.72 in 0.8 mi WNW 27.6 mph 42.6 mph N/A   Haze
10:27 AM 48.2 °F - 26.6 °F 43% 29.73 in 1.2 mi WNW 19.6 mph 34.5 mph N/A   Haze
10:45 AM 48.2 °F - 26.6 °F 43% 29.73 in 2.0 mi WNW 10.4 mph 28.8 mph N/A   Haze
10:50 AM 48.2 °F - 26.6 °F 43% 29.72 in 1.8 mi NW 17.3 mph 28.8 mph N/A   Haze
10:56 AM 50.0 °F - 27.0 °F 41% 29.73 in 1.0 mi West 20.7 mph 29.9 mph N/A   Haze
11:16 AM 50.0 °F - 26.6 °F 40% 29.73 in 3.0 mi WNW 23.0 mph 28.8 mph N/A   Haze
11:36 AM 50.0 °F - 26.6 °F 40% 29.73 in 2.0 mi WNW 29.9 mph 40.3 mph N/A   Haze
11:40 AM 50.0 °F - 26.6 °F 40% 29.73 in 3.0 mi WNW 18.4 mph 40.3 mph N/A   Haze
11:56 AM 51.1 °F - 28.0 °F 41% 29.72 in 7.0 mi West 23.0 mph 33.4 mph N/A   Overcast
12:56 PM 55.0 °F - 28.9 °F 37% 29.68 in 1.8 mi West 28.8 mph 40.3 mph N/A   Haze
1:10 PM 55.4 °F - 28.4 °F 36% 29.67 in 0.8 mi WNW 34.5 mph 50.6 mph N/A   Haze
1:25 PM 55.4 °F - 28.4 °F 36% 29.63 in 0.5 mi WNW 44.9 mph 54.1 mph N/A   Haze
1:39 PM 55.4 °F - 28.4 °F 36% 29.62 in 0.2 mi NW 47.2 mph 61.0 mph N/A   Haze
1:49 PM 55.4 °F - 30.2 °F 38% 29.67 in 0.8 mi WNW 41.4 mph 62.1 mph N/A   Haze
1:51 PM 55.4 °F - 30.2 °F 38% 29.68 in 1.5 mi WNW 35.7 mph 55.2 mph N/A   Haze
1:54 PM 55.4 °F - 30.2 °F 38% 29.69 in 3.0 mi WNW 35.7 mph 51.8 mph N/A   Haze
1:56 PM 55.0 °F - 30.0 °F 38% 29.68 in 4.0 mi WNW 29.9 mph 51.8 mph N/A   Haze
2:03 PM 55.4 °F - 30.2 °F 38% 29.70 in 4.0 mi West 29.9 mph 38.0 mph N/A   Haze
2:08 PM 55.4 °F - 30.2 °F 38% 29.70 in 1.5 mi WNW 24.2 mph 39.1 mph N/A   Haze
2:17 PM 53.6 °F - 30.2 °F 41% 29.70 in 0.5 mi West 28.8 mph 38.0 mph N/A   Haze
2:24 PM 53.6 °F - 28.4 °F 38% 29.70 in 0.2 mi West 19.6 mph 36.8 mph N/A   Haze
2:33 PM 53.6 °F - 28.4 °F 38% 29.68 in 0.8 mi WNW 34.5 mph 42.6 mph N/A   Haze
2:43 PM 53.6 °F - 30.2 °F 41% 29.68 in 0.8 mi WNW 40.3 mph 48.3 mph N/A   Haze
2:56 PM 54.0 °F - 30.0 °F 40% 29.66 in 1.0 mi WNW 42.6 mph 56.4 mph N/A   Haze
3:19 PM 53.6 °F - 30.2 °F 41% 29.68 in 2.0 mi NW 42.6 mph 50.6 mph N/A   Haze
3:31 PM 51.8 °F - 32.0 °F 47% 29.69 in 1.5 mi NW 39.1 mph 49.5 mph N/A   Haze
3:48 PM 51.8 °F - 32.0 °F 47% 29.71 in 0.8 mi WNW 31.1 mph 43.7 mph N/A   Haze
3:56 PM 51.1 °F - 33.1 °F 50% 29.70 in 1.0 mi WNW 35.7 mph 46.0 mph N/A   Haze
4:12 PM 51.8 °F - 33.8 °F 50% 29.70 in 0.8 mi WNW 32.2 mph 43.7 mph N/A   Haze
4:21 PM 53.6 °F - 30.2 °F 41% 29.70 in 1.0 mi WNW 36.8 mph 43.7 mph N/A   Haze
4:32 PM 53.6 °F - 30.2 °F 41% 29.70 in 1.2 mi WNW 34.5 mph 48.3 mph N/A   Haze
4:46 PM 53.6 °F - 32.0 °F 44% 29.71 in 2.5 mi WNW 33.4 mph 44.9 mph N/A   Haze
4:56 PM 53.1 °F - 30.9 °F 43% 29.71 in 1.5 mi WNW 33.4 mph 46.0 mph N/A   Haze
5:15 PM 53.6 °F - 30.2 °F 41% 29.72 in 2.5 mi WNW 29.9 mph 41.4 mph N/A   Haze
5:34 PM 51.8 °F - 30.2 °F 44% 29.73 in 1.5 mi WNW 31.1 mph 42.6 mph N/A   Haze
5:56 PM 52.0 °F - 30.0 °F 43% 29.76 in 2.0 mi West 26.5 mph 39.1 mph N/A   Haze
6:19 PM 51.8 °F - 30.2 °F 44% 29.76 in 3.0 mi West 24.2 mph 34.5 mph N/A   Haze
6:45 PM 51.8 °F - 30.2 °F 44% 29.77 in 2.5 mi West 29.9 mph 41.4 mph N/A   Haze
6:56 PM 51.1 °F - 30.0 °F 44% 29.77 in 3.0 mi West 26.5 mph 38.0 mph N/A   Haze
7:05 PM 51.8 °F - 30.2 °F 44% 29.77 in 2.0 mi West 27.6 mph 34.5 mph N/A   Haze
7:23 PM 51.8 °F - 30.2 °F 44% 29.77 in 4.0 mi West 23.0 mph 36.8 mph N/A   Haze
7:56 PM 51.1 °F - 30.9 °F 46% 29.79 in 4.0 mi WSW 12.7 mph 20.7 mph N/A   Haze
8:22 PM 50.0 °F - 30.2 °F 47% 29.78 in 2.0 mi WSW 11.5 mph 20.7 mph N/A   Haze
8:48 PM 50.0 °F - 30.2 °F 47% 29.80 in 6.0 mi SSW 9.2 mph - N/A   Haze
8:56 PM 50.0 °F - 30.9 °F 48% 29.82 in 7.0 mi Variable 6.9 mph - N/A   Clear
9:56 PM 50.0 °F - 30.9 °F 48% 29.83 in 1.8 mi NW 6.9 mph - N/A   Haze
10:03 PM 50.0 °F - 30.2 °F 47% 29.83 in 0.2 mi WNW 8.1 mph - N/A   Haze
10:56 PM 48.9 °F - 32.0 °F 52% 29.84 in 0.2 mi WNW 23.0 mph 32.2 mph N/A   Haze
11:56 PM 48.9 °F - 32.0 °F 52% 29.86 in 0.2 mi WNW 10.4 mph - N/A   Haze